QPF
0.03 0.04 0.04 0.04 0.05 0.05 0.05 0.05 0.05 0.05 0.06 0.06 0.06 0.05 0.05 0.04 0.05 0.06 0.05 0.04 0.04 0.05 0.06 0.06 0.05 0.04 0.04 0.04 0.05 0.05 0.05 0.06 0.05 0.03 0.02 0.02 0.02 0.02 0.02 0.02 0.03 0.03 0.03
0.01 0.02 0.02 0.03 0.04 0.04 0.04 0.04 0.04 0.04 0.04 0.04 0.04 0.04 0.04 0.05 0.05 0.05 0.05 0.05 0.05 0.04 0.05 0.05 0.05 0.05 0.05 0.05 0.05 0.04 0.04 0.04 0.04 0.03 0.02 0.02 0.03 0.03 0.02 0.03 0.03 0.03 0.03
0.01 0.01 0.01 0.02 0.03 0.03 0.03 0.03 0.03 0.03 0.03 0.03 0.03 0.03 0.03 0.04 0.05 0.05 0.04 0.05 0.04 0.04 0.04 0.04 0.04 0.04 0.03 0.03 0.04 0.04 0.04 0.04 0.04 0.04 0.03 0.03 0.04 0.03 0.03 0.03 0.04 0.04 0.03
0.01 0.01 0.01 0.01 0.02 0.02 0.02 0.02 0.02 0.03 0.03 0.03 0.03 0.03 0.03 0.03 0.03 0.04 0.04 0.04 0.04 0.03 0.03 0.02 0.02 0.02 0.02 0.03 0.03 0.03 0.03 0.03 0.03 0.04 0.03 0.03 0.04 0.05 0.04 0.04 0.04 0.04 0.03
0.01 0.01 0.01 0.01 0.01 0.01 0.01 0.01 0.01 0.01 0.01 0.02 0.02 0.02 0.02 0.03 0.03 0.04 0.05 0.04 0.03 0.03 0.02 0.02 0.01 0.02 0.02 0.03 0.03 0.02 0.02 0.03 0.03 0.03 0.03 0.02 0.03 0.04 0.03 0.03 0.04 0.05 0.03
0.01 0.01 0.01 0.01 0.01 0.01 0.01 0.01 0.01 0.01 0.01 0.01 0.01 0.01 0.02 0.02 0.02 0.03 0.04 0.03 0.03 0.02 0.01 0.01 0.01 0.01 0.01 0.02 0.02 0.02 0.02 0.02 0.03 0.03 0.03 0.02 0.03 0.03 0.02 0.02 0.02 0.04 0.04
0.01 0.01 0.01 0.01 0.01 0.01 0.01 0.00 0.00 0.00 0.01 0.01 0.01 0.01 0.01 0.01 0.01 0.02 0.03 0.03 0.02 0.02 0.01 0.01 0.01 0.01 0.01 0.02 0.01 0.02 0.02 0.02 0.02 0.02 0.03 0.02 0.02 0.03 0.03 0.02 0.02 0.02 0.02
0.01 0.01 0.01 0.01 0.01 0.01 0.01 0.00 0.00 0.00 0.00 0.00 0.00 0.00 0.00 0.00 0.01 0.02 0.03 0.02 0.02 0.02 0.02 0.01 0.01 0.01 0.01 0.02 0.02 0.02 0.02 0.02 0.02 0.02 0.03 0.02 0.03 0.03 0.03 0.03 0.03 0.03 0.03
0.01 0.01 0.01 0.01 0.01 0.01 0.01 0.01 0.00 0.00 0.00 0.00 0.00 0.00 0.00 0.00 0.01 0.02 0.03 0.02 0.02 0.02 0.02 0.02 0.02 0.02 0.02 0.02 0.02 0.02 0.02 0.02 0.03 0.03 0.03 0.03 0.03 0.03 0.04 0.04 0.04 0.04 0.04
0.01 0.01 0.01 0.01 0.01 0.01 0.01 0.01 0.00 0.00 0.00 0.00 0.00 0.00 0.00 0.01 0.01 0.02 0.03 0.02 0.03 0.03 0.03 0.02 0.02 0.02 0.02 0.03 0.03 0.02 0.02 0.01 0.02 0.03 0.03 0.03 0.03 0.03 0.04 0.04 0.04 0.05 0.04
0.02 0.01 0.01 0.01 0.01 0.00 0.00 0.00 0.00 0.00 0.00 0.01 0.01 0.01 0.01 0.01 0.01 0.01 0.02 0.02 0.03 0.04 0.04 0.03 0.03 0.03 0.03 0.03 0.03 0.03 0.03 0.02 0.02 0.03 0.03 0.03 0.03 0.03 0.03 0.03 0.04 0.05 0.05
0.02 0.02 0.02 0.01 0.01 0.00 0.00 0.00 0.00 0.00 0.00 0.00 0.01 0.01 0.01 0.01 0.01 0.01 0.01 0.02 0.03 0.03 0.04 0.03 0.03 0.04 0.03 0.03 0.04 0.04 0.04 0.03 0.03 0.03 0.02 0.03 0.03 0.03 0.03 0.03 0.04 0.05 0.05
0.03 0.03 0.03 0.02 0.01 0.01 0.01 0.01 0.01 0.01 0.01 0.01 0.01 0.01 0.01 0.01 0.01 0.01 0.01 0.02 0.02 0.03 0.03 0.03 0.03 0.04 0.04 0.04 0.04 0.05 0.04 0.03 0.03 0.03 0.02 0.02 0.02 0.03 0.03 0.04 0.04 0.04 0.04
0.03 0.03 0.03 0.03 0.02 0.01 0.01 0.01 0.01 0.01 0.02 0.02 0.02 0.02 0.01 0.01 0.01 0.01 0.02 0.02 0.03 0.03 0.03 0.03 0.03 0.03 0.04 0.05 0.06 0.06 0.04 0.03 0.03 0.03 0.03 0.03 0.04 0.04 0.04 0.04 0.04 0.04 0.04
0.03 0.03 0.03 0.03 0.03 0.03 0.02 0.01 0.01 0.01 0.02 0.03 0.03 0.03 0.02 0.02 0.02 0.02 0.02 0.03 0.05 0.05 0.04 0.04 0.04 0.04 0.04 0.05 0.05 0.05 0.04 0.05 0.05 0.04 0.04 0.04 0.05 0.05 0.05 0.05 0.04 0.04 0.04
0.03 0.03 0.03 0.03 0.03 0.02 0.02 0.02 0.02 0.02 0.02 0.02 0.02 0.02 0.02 0.02 0.02 0.02 0.03 0.04 0.05 0.05 0.05 0.05 0.04 0.04 0.03 0.03 0.03 0.03 0.03 0.04 0.04 0.05 0.05 0.05 0.05 0.04 0.04 0.04 0.04 0.04 0.04
0.03 0.03 0.03 0.03 0.03 0.02 0.02 0.02 0.02 0.02 0.02 0.02 0.02 0.02 0.02 0.02 0.02 0.02 0.02 0.03 0.05 0.06 0.06 0.06 0.04 0.03 0.03 0.03 0.03 0.03 0.03 0.03 0.04 0.05 0.05 0.06 0.05 0.05 0.04 0.03 0.03 0.03 0.03
0.03 0.03 0.03 0.03 0.03 0.03 0.03 0.02 0.03 0.03 0.03 0.03 0.03 0.03 0.03 0.03 0.03 0.03 0.03 0.04 0.05 0.06 0.06 0.07 0.06 0.05 0.04 0.04 0.04 0.04 0.03 0.03 0.04 0.05 0.06 0.06 0.05 0.05 0.04 0.04 0.03 0.03 0.02
0.02 0.02 0.03 0.03 0.03 0.03 0.04 0.04 0.04 0.03 0.03 0.03 0.03 0.04 0.04 0.05 0.05 0.05 0.05 0.05 0.05 0.06 0.06 0.07 0.08 0.07 0.06 0.06 0.05 0.05 0.05 0.04 0.04 0.05 0.05 0.05 0.05 0.04 0.04 0.04 0.03 0.03 0.03
0.02 0.02 0.03 0.03 0.03 0.03 0.04 0.04 0.04 0.04 0.04 0.04 0.04 0.04 0.04 0.05 0.05 0.06 0.06 0.06 0.05 0.05 0.06 0.07 0.07 0.08 0.08 0.08 0.08 0.07 0.07 0.06 0.06 0.05 0.05 0.04 0.04 0.04 0.04 0.04 0.04 0.04 0.03
0.02 0.02 0.02 0.02 0.03 0.03 0.03 0.03 0.04 0.04 0.04 0.05 0.05 0.05 0.05 0.05 0.05 0.05 0.06 0.06 0.06 0.06 0.06 0.06 0.06 0.07 0.07 0.08 0.08 0.08 0.08 0.07 0.06 0.06 0.05 0.05 0.04 0.04 0.04 0.04 0.04 0.04 0.04
0.02 0.02 0.02 0.02 0.03 0.03 0.03 0.03 0.03 0.03 0.03 0.03 0.04 0.05 0.06 0.06 0.06 0.06 0.06 0.06 0.06 0.06 0.06 0.06 0.06 0.06 0.06 0.07 0.07 0.07 0.07 0.06 0.06 0.05 0.05 0.05 0.05 0.04 0.04 0.04 0.04 0.04 0.04
0.02 0.02 0.02 0.02 0.02 0.03 0.03 0.03 0.03 0.03 0.03 0.03 0.03 0.04 0.05 0.05 0.06 0.07 0.07 0.07 0.07 0.07 0.07 0.07 0.07 0.07 0.07 0.07 0.06 0.06 0.06 0.05 0.05 0.05 0.05 0.05 0.05 0.04 0.04 0.04 0.04 0.04 0.04
0.02 0.02 0.02 0.02 0.01 0.02 0.02 0.02 0.02 0.02 0.02 0.03 0.03 0.03 0.03 0.04 0.05 0.05 0.06 0.07 0.07 0.07 0.07 0.07 0.07 0.07 0.07 0.06 0.06 0.06 0.06 0.05 0.05 0.05 0.05 0.05 0.04 0.04 0.04 0.03 0.03 0.04 0.04
0.02 0.02 0.02 0.02 0.02 0.02 0.02 0.02 0.02 0.02 0.02 0.02 0.03 0.03 0.03 0.04 0.04 0.04 0.05 0.05 0.06 0.06 0.07 0.07 0.07 0.07 0.06 0.06 0.06 0.05 0.05 0.05 0.05 0.05 0.05 0.04 0.04 0.03 0.03 0.03 0.03 0.03 0.03
0.02 0.02 0.02 0.01 0.01 0.01 0.02 0.02 0.02 0.02 0.02 0.02 0.03 0.03 0.03 0.03 0.03 0.03 0.03 0.04 0.04 0.05 0.05 0.06 0.06 0.05 0.05 0.05 0.05 0.05 0.05 0.05 0.04 0.04 0.04 0.04 0.04 0.03 0.03 0.03 0.03 0.03 0.03
MSLP
1009.67 1009.75 1009.90 1010.16 1010.52 1011.01 1011.62 1012.34 1013.16 1014.05 1014.96 1015.86 1016.70 1017.45 1018.09 1018.63 1019.06 1019.42 1019.72 1020.00 1020.27 1020.54 1020.82 1021.09 1021.36 1021.59 1021.79 1021.93 1022.01 1022.03 1022.00 1021.92 1021.81 1021.66 1021.49 1021.30 1021.07 1020.81 1020.52 1020.18 1019.79 1019.35 1018.88
1008.76 1008.81 1008.97 1009.23 1009.63 1010.15 1010.81 1011.58 1012.45 1013.38 1014.33 1015.26 1016.14 1016.93 1017.61 1018.19 1018.68 1019.09 1019.45 1019.78 1020.10 1020.43 1020.76 1021.08 1021.38 1021.65 1021.86 1022.01 1022.10 1022.11 1022.07 1021.97 1021.82 1021.62 1021.39 1021.11 1020.80 1020.45 1020.06 1019.62 1019.15 1018.65 1018.12
1008.01 1008.06 1008.23 1008.53 1008.95 1009.51 1010.20 1011.00 1011.89 1012.83 1013.79 1014.73 1015.60 1016.40 1017.09 1017.69 1018.20 1018.65 1019.05 1019.42 1019.79 1020.15 1020.51 1020.86 1021.18 1021.46 1021.68 1021.84 1021.92 1021.94 1021.89 1021.77 1021.60 1021.38 1021.11 1020.79 1020.43 1020.01 1019.56 1019.06 1018.54 1017.98 1017.41
1007.48 1007.56 1007.75 1008.08 1008.54 1009.13 1009.84 1010.65 1011.53 1012.46 1013.39 1014.29 1015.13 1015.89 1016.57 1017.15 1017.66 1018.12 1018.54 1018.94 1019.33 1019.71 1020.09 1020.44 1020.77 1021.05 1021.26 1021.41 1021.49 1021.50 1021.45 1021.34 1021.17 1020.95 1020.67 1020.35 1019.97 1019.54 1019.07 1018.55 1017.99 1017.41 1016.81
1007.21 1007.32 1007.55 1007.91 1008.40 1009.02 1009.73 1010.53 1011.39 1012.27 1013.14 1013.98 1014.76 1015.46 1016.08 1016.62 1017.11 1017.55 1017.97 1018.37 1018.76 1019.15 1019.53 1019.88 1020.19 1020.46 1020.66 1020.79 1020.86 1020.87 1020.82 1020.71 1020.56 1020.37 1020.12 1019.83 1019.48 1019.08 1018.63 1018.12 1017.57 1016.98 1016.36
1007.19 1007.33 1007.60 1008.00 1008.52 1009.14 1009.85 1010.63 1011.44 1012.26 1013.05 1013.80 1014.49 1015.10 1015.65 1016.13 1016.57 1016.98 1017.37 1017.76 1018.15 1018.53 1018.90 1019.23 1019.53 1019.77 1019.95 1020.06 1020.11 1020.11 1020.07 1019.98 1019.86 1019.71 1019.52 1019.29 1019.00 1018.66 1018.27 1017.81 1017.29 1016.70 1016.06
1007.38 1007.55 1007.86 1008.28 1008.81 1009.44 1010.14 1010.88 1011.63 1012.38 1013.08 1013.73 1014.31 1014.82 1015.28 1015.69 1016.06 1016.43 1016.79 1017.15 1017.53 1017.90 1018.25 1018.56 1018.84 1019.05 1019.21 1019.30 1019.33 1019.33 1019.29 1019.22 1019.14 1019.04 1018.92 1018.76 1018.56 1018.31 1017.98 1017.58 1017.10 1016.54 1015.88
1007.71 1007.90 1008.22 1008.66 1009.20 1009.82 1010.50 1011.20 1011.89 1012.56 1013.17 1013.72 1014.19 1014.60 1014.96 1015.28 1015.59 1015.90 1016.23 1016.57 1016.92 1017.27 1017.61 1017.91 1018.16 1018.36 1018.49 1018.56 1018.59 1018.58 1018.55 1018.51 1018.46 1018.42 1018.36 1018.28 1018.16 1017.99 1017.74 1017.40 1016.96 1016.41 1015.74
1008.10 1008.30 1008.62 1009.06 1009.59 1010.20 1010.84 1011.50 1012.14 1012.73 1013.25 1013.70 1014.08 1014.39 1014.66 1014.90 1015.15 1015.41 1015.69 1016.01 1016.34 1016.68 1017.00 1017.29 1017.53 1017.71 1017.83 1017.89 1017.91 1017.90 1017.88 1017.86 1017.85 1017.85 1017.85 1017.83 1017.78 1017.67 1017.49 1017.19 1016.78 1016.24 1015.55
1008.48 1008.67 1008.98 1009.40 1009.91 1010.49 1011.10 1011.71 1012.29 1012.81 1013.26 1013.63 1013.92 1014.15 1014.34 1014.52 1014.71 1014.92 1015.17 1015.46 1015.77 1016.10 1016.41 1016.69 1016.92 1017.10 1017.21 1017.27 1017.29 1017.28 1017.27 1017.28 1017.29 1017.33 1017.37 1017.39 1017.39 1017.32 1017.16 1016.89 1016.48 1015.93 1015.22
1008.81 1008.97 1009.24 1009.63 1010.10 1010.64 1011.21 1011.78 1012.30 1012.77 1013.16 1013.46 1013.68 1013.85 1013.98 1014.11 1014.25 1014.42 1014.64 1014.90 1015.20 1015.51 1015.81 1016.09 1016.31 1016.49 1016.60 1016.67 1016.70 1016.71 1016.71 1016.73 1016.77 1016.83 1016.89 1016.94 1016.94 1016.88 1016.73 1016.45 1016.03 1015.45 1014.71
1009.08 1009.19 1009.42 1009.75 1010.17 1010.66 1011.18 1011.70 1012.17 1012.59 1012.92 1013.18 1013.35 1013.47 1013.56 1013.65 1013.75 1013.90 1014.09 1014.33 1014.60 1014.90 1015.18 1015.45 1015.67 1015.85 1015.97 1016.05 1016.10 1016.13 1016.16 1016.20 1016.26 1016.33 1016.40 1016.45 1016.45 1016.37 1016.19 1015.88 1015.42 1014.81 1014.02
1009.31 1009.35 1009.51 1009.78 1010.14 1010.57 1011.03 1011.49 1011.91 1012.28 1012.57 1012.78 1012.93 1013.02 1013.08 1013.14 1013.22 1013.34 1013.51 1013.72 1013.97 1014.24 1014.51 1014.76 1014.98 1015.16 1015.29 1015.39 1015.46 1015.52 1015.58 1015.65 1015.73 1015.82 1015.89 1015.93 1015.91 1015.80 1015.57 1015.21 1014.70 1014.04 1013.21
1009.52 1009.50 1009.58 1009.78 1010.06 1010.42 1010.81 1011.20 1011.57 1011.89 1012.14 1012.32 1012.44 1012.51 1012.56 1012.60 1012.66 1012.76 1012.90 1013.08 1013.30 1013.54 1013.78 1014.02 1014.22 1014.40 1014.54 1014.67 1014.77 1014.87 1014.97 1015.08 1015.19 1015.30 1015.38 1015.41 1015.36 1015.21 1014.94 1014.52 1013.95 1013.23 1012.35
1009.74 1009.65 1009.67 1009.78 1009.99 1010.26 1010.57 1010.89 1011.19 1011.46 1011.67 1011.82 1011.92 1011.98 1012.01 1012.04 1012.09 1012.17 1012.28 1012.43 1012.62 1012.82 1013.03 1013.23 1013.42 1013.59 1013.75 1013.90 1014.04 1014.18 1014.34 1014.50 1014.65 1014.79 1014.88 1014.91 1014.85 1014.66 1014.34 1013.87 1013.24 1012.45 1011.52
1009.99 1009.85 1009.80 1009.84 1009.96 1010.15 1010.38 1010.62 1010.86 1011.06 1011.23 1011.34 1011.42 1011.46 1011.48 1011.50 1011.54 1011.59 1011.68 1011.80 1011.94 1012.10 1012.26 1012.43 1012.60 1012.77 1012.94 1013.11 1013.29 1013.49 1013.70 1013.91 1014.12 1014.30 1014.42 1014.47 1014.40 1014.19 1013.83 1013.31 1012.63 1011.78 1010.79
1010.28 1010.10 1010.00 1009.97 1010.02 1010.13 1010.27 1010.44 1010.60 1010.74 1010.85 1010.93 1010.98 1011.00 1011.01 1011.01 1011.03 1011.06 1011.12 1011.19 1011.29 1011.40 1011.53 1011.66 1011.81 1011.96 1012.14 1012.33 1012.56 1012.81 1013.08 1013.36 1013.62 1013.85 1014.02 1014.08 1014.01 1013.80 1013.42 1012.86 1012.14 1011.24 1010.19
1010.58 1010.38 1010.25 1010.18 1010.17 1010.20 1010.27 1010.36 1010.45 1010.52 1010.58 1010.61 1010.62 1010.62 1010.61 1010.59 1010.59 1010.59 1010.61 1010.65 1010.70 1010.76 1010.84 1010.94 1011.06 1011.20 1011.38 1011.61 1011.87 1012.17 1012.49 1012.83 1013.15 1013.44 1013.64 1013.73 1013.69 1013.47 1013.09 1012.51 1011.75 1010.82 1009.72
1010.87 1010.68 1010.53 1010.44 1010.38 1010.37 1010.37 1010.39 1010.40 1010.42 1010.42 1010.40 1010.38 1010.34 1010.30 1010.26 1010.22 1010.20 1010.18 1010.17 1010.17 1010.19 1010.23 1010.29 1010.38 1010.52 1010.70 1010.94 1011.23 1011.57 1011.95 1012.34 1012.71 1013.04 1013.28 1013.41 1013.38 1013.18 1012.79 1012.21 1011.43 1010.48 1009.36
1011.12 1010.96 1010.82 1010.72 1010.65 1010.59 1010.54 1010.50 1010.46 1010.41 1010.36 1010.30 1010.23 1010.15 1010.08 1010.01 1009.94 1009.88 1009.82 1009.76 1009.72 1009.69 1009.68 1009.71 1009.78 1009.90 1010.08 1010.33 1010.65 1011.02 1011.44 1011.87 1012.28 1012.65 1012.92 1013.07 1013.06 1012.88 1012.50 1011.92 1011.15 1010.19 1009.06
1011.31 1011.19 1011.09 1011.00 1010.91 1010.83 1010.75 1010.67 1010.58 1010.48 1010.38 1010.27 1010.16 1010.05 1009.94 1009.84 1009.73 1009.62 1009.52 1009.42 1009.33 1009.26 1009.21 1009.20 1009.24 1009.35 1009.53 1009.79 1010.13 1010.52 1010.97 1011.42 1011.86 1012.25 1012.55 1012.71 1012.72 1012.54 1012.18 1011.61 1010.85 1009.91 1008.80
1011.44 1011.37 1011.30 1011.23 1011.15 1011.06 1010.96 1010.84 1010.71 1010.58 1010.44 1010.29 1010.14 1010.00 1009.86 1009.71 1009.57 1009.42 1009.27 1009.13 1008.99 1008.87 1008.79 1008.75 1008.77 1008.86 1009.04 1009.31 1009.66 1010.07 1010.53 1011.01 1011.47 1011.86 1012.17 1012.34 1012.35 1012.19 1011.83 1011.29 1010.56 1009.65 1008.57
1011.48 1011.45 1011.42 1011.37 1011.31 1011.21 1011.10 1010.97 1010.82 1010.65 1010.48 1010.31 1010.14 1009.97 1009.80 1009.62 1009.44 1009.26 1009.07 1008.88 1008.70 1008.54 1008.42 1008.36 1008.36 1008.45 1008.63 1008.90 1009.26 1009.69 1010.16 1010.65 1011.11 1011.51 1011.82 1011.99 1012.00 1011.84 1011.50 1010.98 1010.28 1009.42 1008.40
1011.43 1011.44 1011.44 1011.41 1011.35 1011.26 1011.14 1011.00 1010.84 1010.66 1010.48 1010.30 1010.11 1009.93 1009.74 1009.54 1009.34 1009.12 1008.90 1008.67 1008.46 1008.27 1008.12 1008.04 1008.03 1008.11 1008.29 1008.58 1008.95 1009.39 1009.88 1010.37 1010.84 1011.24 1011.54 1011.70 1011.72 1011.56 1011.23 1010.73 1010.07 1009.25 1008.30
1011.28 1011.32 1011.33 1011.31 1011.26 1011.17 1011.05 1010.91 1010.75 1010.58 1010.40 1010.22 1010.03 1009.85 1009.66 1009.45 1009.23 1009.00 1008.76 1008.51 1008.27 1008.06 1007.90 1007.80 1007.79 1007.88 1008.06 1008.36 1008.75 1009.20 1009.70 1010.20 1010.67 1011.07 1011.37 1011.53 1011.53 1011.38 1011.06 1010.58 1009.95 1009.18 1008.30
1011.04 1011.08 1011.10 1011.08 1011.03 1010.94 1010.83 1010.69 1010.54 1010.38 1010.22 1010.06 1009.90 1009.73 1009.55 1009.35 1009.14 1008.91 1008.66 1008.40 1008.16 1007.94 1007.77 1007.67 1007.66 1007.75 1007.96 1008.27 1008.67 1009.14 1009.65 1010.15 1010.62 1011.02 1011.31 1011.46 1011.47 1011.31 1011.00 1010.54 1009.94 1009.23 1008.41
Thickness
5505 5506 5508 5509 5509 5510 5511 5511 5512 5513 5514 5515 5515 5516 5517 5518 5517 5517 5518 5517 5517 5518 5517 5517 5517 5516 5516 5516 5515 5515 5515 5515 5518 5521 5520 5519 5518 5517 5517 5516 5515 5514 5514
5495 5496 5497 5498 5499 5500 5501 5501 5502 5503 5503 5504 5505 5506 5507 5507 5508 5508 5508 5508 5507 5508 5507 5507 5507 5506 5505 5505 5504 5504 5504 5504 5505 5507 5508 5507 5506 5507 5506 5506 5504 5503 5502
5485 5486 5488 5488 5490 5491 5491 5491 5492 5493 5493 5493 5494 5496 5496 5497 5497 5498 5498 5498 5498 5498 5497 5497 5497 5496 5496 5495 5494 5493 5493 5493 5494 5495 5496 5495 5495 5495 5495 5494 5493 5492 5491
5476 5477 5479 5480 5481 5481 5481 5481 5482 5483 5483 5484 5484 5484 5485 5486 5487 5487 5488 5487 5488 5488 5487 5487 5486 5486 5486 5485 5484 5483 5482 5482 5483 5483 5484 5484 5484 5484 5482 5482 5481 5480 5479
5467 5469 5470 5470 5471 5471 5470 5471 5472 5472 5473 5473 5473 5473 5474 5475 5476 5477 5477 5477 5478 5478 5477 5476 5476 5475 5474 5474 5473 5473 5472 5471 5471 5472 5473 5473 5473 5472 5471 5470 5469 5469 5469
5459 5460 5460 5460 5460 5460 5460 5461 5462 5462 5462 5462 5462 5463 5463 5464 5465 5465 5465 5465 5466 5467 5466 5466 5465 5464 5463 5462 5462 5462 5461 5461 5462 5461 5462 5463 5464 5462 5460 5458 5457 5457 5459
5451 5451 5451 5451 5451 5450 5451 5451 5452 5452 5451 5451 5452 5452 5453 5454 5453 5454 5453 5454 5455 5455 5455 5455 5455 5454 5453 5453 5452 5452 5451 5451 5451 5452 5453 5454 5454 5453 5450 5448 5446 5447 5448
5443 5443 5443 5442 5442 5442 5442 5442 5442 5441 5441 5441 5442 5442 5442 5443 5442 5442 5442 5441 5442 5443 5443 5443 5443 5444 5443 5443 5443 5442 5443 5443 5443 5442 5444 5445 5443 5441 5438 5437 5436 5435 5434
5435 5435 5434 5434 5434 5434 5433 5433 5432 5431 5431 5431 5431 5431 5432 5432 5431 5431 5430 5430 5431 5432 5432 5432 5432 5433 5433 5432 5432 5433 5433 5434 5433 5432 5433 5433 5432 5430 5427 5424 5423 5421 5422
5425 5425 5425 5425 5425 5424 5424 5423 5422 5421 5421 5421 5421 5421 5421 5422 5421 5420 5418 5419 5421 5421 5421 5421 5421 5421 5421 5421 5421 5422 5423 5424 5423 5423 5423 5422 5421 5419 5417 5415 5413 5411 5410
5417 5417 5417 5416 5416 5416 5415 5414 5413 5412 5412 5412 5412 5412 5412 5412 5411 5410 5409 5408 5409 5410 5411 5411 5412 5411 5411 5411 5410 5412 5413 5413 5412 5412 5412 5411 5410 5408 5406 5404 5402 5400 5400
5408 5409 5409 5408 5408 5407 5406 5405 5404 5403 5403 5403 5403 5403 5402 5402 5401 5401 5400 5399 5399 5400 5401 5402 5402 5401 5401 5401 5401 5402 5402 5401 5401 5401 5401 5400 5398 5396 5394 5392 5390 5388 5388
5400 5401 5401 5401 5400 5399 5398 5397 5395 5395 5394 5394 5393 5393 5393 5393 5393 5392 5391 5391 5390 5391 5392 5392 5391 5391 5391 5392 5392 5392 5391 5391 5390 5389 5389 5388 5385 5383 5381 5379 5378 5377 5376
5392 5393 5393 5393 5393 5391 5389 5388 5387 5386 5385 5385 5384 5384 5384 5384 5384 5384 5383 5383 5382 5382 5382 5382 5381 5381 5381 5382 5382 5382 5381 5380 5379 5379 5377 5375 5372 5370 5369 5369 5368 5367 5366
5384 5385 5385 5385 5384 5383 5381 5380 5379 5378 5377 5376 5376 5375 5375 5376 5376 5375 5375 5376 5375 5375 5374 5373 5373 5373 5373 5373 5373 5372 5371 5370 5368 5367 5365 5363 5361 5359 5359 5358 5357 5356 5356
5376 5377 5377 5376 5375 5374 5373 5372 5370 5368 5368 5367 5366 5366 5367 5367 5367 5367 5367 5367 5366 5365 5365 5366 5365 5364 5364 5364 5363 5362 5361 5360 5358 5356 5355 5353 5351 5350 5349 5347 5347 5347 5347
5367 5368 5368 5368 5367 5365 5364 5364 5364 5362 5360 5359 5358 5358 5358 5358 5358 5358 5359 5358 5358 5357 5356 5357 5357 5356 5355 5354 5353 5352 5352 5350 5348 5346 5345 5343 5342 5340 5338 5338 5337 5337 5338
5359 5359 5359 5359 5358 5357 5356 5355 5355 5354 5353 5353 5352 5351 5350 5350 5350 5351 5350 5349 5349 5349 5348 5348 5347 5347 5346 5345 5345 5344 5342 5340 5339 5337 5336 5334 5333 5331 5330 5329 5328 5328 5328
5352 5352 5352 5351 5350 5349 5348 5347 5346 5345 5345 5345 5345 5344 5343 5343 5343 5343 5342 5342 5342 5341 5341 5340 5339 5338 5337 5337 5336 5336 5334 5332 5331 5329 5328 5326 5325 5324 5322 5321 5320 5319 5318
5345 5344 5343 5343 5343 5341 5340 5339 5339 5338 5338 5338 5338 5337 5336 5336 5336 5336 5335 5335 5334 5334 5333 5332 5331 5330 5329 5329 5329 5328 5326 5325 5324 5322 5321 5319 5317 5316 5315 5313 5312 5311 5310
5338 5337 5335 5335 5334 5333 5332 5332 5331 5330 5330 5330 5330 5329 5329 5328 5328 5328 5328 5328 5327 5326 5325 5324 5323 5323 5322 5322 5322 5320 5319 5318 5317 5315 5314 5312 5310 5308 5307 5305 5304 5303 5302
5330 5329 5328 5328 5327 5326 5325 5324 5323 5323 5323 5322 5322 5322 5321 5320 5320 5320 5320 5320 5319 5319 5318 5317 5317 5316 5316 5315 5315 5314 5313 5311 5310 5309 5307 5305 5303 5301 5300 5298 5296 5295 5294
5322 5322 5321 5320 5319 5318 5318 5317 5316 5315 5315 5315 5314 5314 5313 5313 5312 5312 5312 5312 5311 5311 5310 5310 5310 5310 5310 5309 5308 5307 5307 5306 5304 5302 5301 5299 5296 5295 5293 5292 5290 5289 5288
5315 5314 5313 5313 5312 5311 5310 5309 5309 5308 5308 5307 5307 5307 5306 5305 5305 5305 5305 5304 5304 5304 5304 5303 5304 5304 5303 5302 5302 5301 5300 5299 5298 5296 5294 5293 5290 5289 5287 5286 5284 5283 5282
5308 5307 5306 5305 5304 5303 5302 5301 5301 5301 5300 5300 5299 5299 5299 5299 5298 5298 5298 5298 5297 5297 5296 5296 5296 5297 5297 5296 5296 5295 5294 5293 5292 5290 5288 5287 5285 5283 5282 5280 5279 5277 5276
5301 5299 5298 5297 5296 5295 5294 5293 5293 5293 5293 5292 5292 5292 5292 5292 5292 5292 5292 5291 5291 5290 5290 5290 5290 5290 5290 5290 5290 5289 5288 5288 5287 5285 5284 5282 5280 5278 5277 5275 5273 5272 5271